[Date Prev][Date Next][Thread Prev][Thread Next] - [Date Index][Thread Index][Author Index]

2 Line ISS Keps 1-9



ISS
1 25544U 98067A   03009.14713685  .00030405  00000-0  39172-3 0  5619
2 25544  51.6345  99.1376 0005274  14.7204  61.4653 15.58744724236235


----
Via the sarex mailing list at AMSAT.ORG courtesy of AMSAT-NA.
To unsubscribe, send "unsubscribe sarex" to Majordomo@amsat.org



AMSAT Top AMSAT Home